Time,TemperatureF,DewpointF,PressureIn,WindDirection,WindDirectionDegrees,WindSpeedMPH,WindSpeedGustMPH,Humidity,HourlyPrecipIn,Conditions,Clouds,dailyrainin,SoftwareType,DateUTC
2013-09-27 00:00:00,53.7,52.6,30.06,NE,47,0.0,0.0,96,0.00,,,0.00,WUHU216DAVISVP2,2013-09-27 04:00:00,
2013-09-27 00:01:00,53.6,52.5,30.06,NE,49,0.0,0.0,96,0.00,,,0.00,WUHU216DAVISVP2,2013-09-27 04:01:00,
2013-09-27 00:06:00,53.6,52.5,30.06,NE,49,0.0,0.0,96,0.00,,,0.00,WUHU216DAVISVP2,2013-09-27 04:06:00,
2013-09-27 00:11:00,53.3,52.2,30.06,NE,49,0.0,0.0,96,0.00,,,0.00,WUHU216DAVISVP2,2013-09-27 04:11:00,
2013-09-27 00:16:00,53.0,51.9,30.06,NE,47,0.0,0.0,96,0.00,,,0.00,WUHU216DAVISVP2,2013-09-27 04:16:00,
2013-09-27 00:21:00,52.8,51.7,30.06,NE,47,0.0,0.0,96,0.00,,,0.00,WUHU216DAVISVP2,2013-09-27 04:21:00,
2013-09-27 00:26:00,52.9,52.0,30.06,NE,46,0.0,0.0,97,0.00,,,0.00,WUHU216DAVISVP2,2013-09-27 04:26:00,
2013-09-27 00:30:00,52.9,52.1,30.06,North,0,0.0,0.0,97,0.00,,,0.00,WUHU216DAVISVP2,2013-09-27 04:30:00,
2013-09-27 00:31:00,52.9,52.0,30.06,NE,47,0.0,0.0,97,0.00,,,0.00,WUHU216DAVISVP2,2013-09-27 04:31:00,
2013-09-27 00:36:00,52.9,52.0,30.06,NE,47,0.0,0.0,97,0.00,,,0.00,WUHU216DAVISVP2,2013-09-27 04:36:00,
2013-09-27 00:41:00,52.9,52.0,30.06,NE,47,0.0,0.0,97,0.00,,,0.00,WUHU216DAVISVP2,2013-09-27 04:41:00,
2013-09-27 00:46:00,52.8,52.0,30.06,NE,47,0.0,0.0,97,0.00,,,0.00,WUHU216DAVISVP2,2013-09-27 04:46:00,
2013-09-27 00:51:00,52.5,51.7,30.07,NE,47,0.0,0.0,97,0.00,,,0.00,WUHU216DAVISVP2,2013-09-27 04:51:00,
2013-09-27 00:56:00,52.4,51.5,30.06,NE,47,0.0,0.0,97,0.00,,,0.00,WUHU216DAVISVP2,2013-09-27 04:56:00,
2013-09-27 01:00:00,52.3,51.5,30.06,North,0,0.0,0.0,97,0.00,,,0.00,WUHU216DAVISVP2,2013-09-27 05:00:00,
2013-09-27 01:01:00,52.2,51.3,30.06,NE,47,0.0,0.0,97,0.00,,,0.00,WUHU216DAVISVP2,2013-09-27 05:01:00,
2013-09-27 01:06:00,52.0,51.1,30.06,NE,47,0.0,0.0,97,0.00,,,0.00,WUHU216DAVISVP2,2013-09-27 05:06:00,
2013-09-27 01:11:00,51.8,50.9,30.07,NE,47,0.0,0.0,97,0.00,,,0.00,WUHU216DAVISVP2,2013-09-27 05:11:00,
2013-09-27 01:16:00,51.7,50.8,30.07,NE,47,0.0,0.0,97,0.00,,,0.00,WUHU216DAVISVP2,2013-09-27 05:16:00,
2013-09-27 01:21:00,51.9,51.3,30.07,NE,47,0.0,0.0,98,0.00,,,0.00,WUHU216DAVISVP2,2013-09-27 05:21:00,
2013-09-27 01:26:00,52.1,51.5,30.07,NE,46,0.0,0.0,98,0.00,,,0.00,WUHU216DAVISVP2,2013-09-27 05:26:00,
2013-09-27 01:30:00,52.1,51.6,30.07,North,0,0.0,0.0,98,0.00,,,0.00,WUHU216DAVISVP2,2013-09-27 05:30:00,
2013-09-27 01:31:00,52.1,51.6,30.07,NE,47,0.0,0.0,98,0.00,,,0.00,WUHU216DAVISVP2,2013-09-27 05:31:00,
2013-09-27 01:36:00,51.9,51.4,30.07,NE,47,0.0,0.0,98,0.00,,,0.00,WUHU216DAVISVP2,2013-09-27 05:36:00,
2013-09-27 01:41:00,51.7,51.1,30.07,NE,46,0.0,0.0,98,0.00,,,0.00,WUHU216DAVISVP2,2013-09-27 05:41:00,
2013-09-27 01:46:00,51.4,50.5,30.08,NE,47,0.0,0.0,97,0.00,,,0.00,WUHU216DAVISVP2,2013-09-27 05:46:00,
2013-09-27 01:51:00,51.2,50.3,30.08,NE,47,0.0,0.0,97,0.00,,,0.00,WUHU216DAVISVP2,2013-09-27 05:51:00,
2013-09-27 01:56:00,51.2,50.6,30.08,NE,47,0.0,0.0,98,0.00,,,0.00,WUHU216DAVISVP2,2013-09-27 05:56:00,
2013-09-27 02:00:00,51.2,50.7,30.08,North,0,0.0,0.0,98,0.00,,,0.00,WUHU216DAVISVP2,2013-09-27 06:00:00,
2013-09-27 02:01:00,51.2,50.6,30.08,NE,47,0.0,0.0,98,0.00,,,0.00,WUHU216DAVISVP2,2013-09-27 06:01:00,
2013-09-27 02:06:00,51.0,50.4,30.07,NE,49,0.0,0.0,98,0.00,,,0.00,WUHU216DAVISVP2,2013-09-27 06:06:00,
2013-09-27 02:11:00,50.8,50.2,30.07,NE,48,0.0,0.0,98,0.00,,,0.00,WUHU216DAVISVP2,2013-09-27 06:11:00,
2013-09-27 02:16:00,50.6,49.8,30.08,NE,49,0.0,0.0,97,0.00,,,0.00,WUHU216DAVISVP2,2013-09-27 06:16:00,
2013-09-27 02:21:00,50.6,50.1,30.07,NE,47,0.0,0.0,98,0.00,,,0.00,WUHU216DAVISVP2,2013-09-27 06:21:00,
2013-09-27 02:26:00,50.6,50.0,30.07,NE,47,0.0,0.0,98,0.00,,,0.00,WUHU216DAVISVP2,2013-09-27 06:26:00,
2013-09-27 02:30:00,50.8,50.3,30.07,North,0,0.0,0.0,98,0.00,,,0.00,WUHU216DAVISVP2,2013-09-27 06:30:00,
2013-09-27 02:31:00,50.9,50.3,30.07,NE,49,0.0,0.0,98,0.00,,,0.00,WUHU216DAVISVP2,2013-09-27 06:31:00,
2013-09-27 02:36:00,50.8,50.2,30.07,NE,49,0.0,0.0,98,0.00,,,0.00,WUHU216DAVISVP2,2013-09-27 06:36:00,
2013-09-27 02:41:00,50.8,50.2,30.07,NE,48,0.0,0.0,98,0.00,,,0.00,WUHU216DAVISVP2,2013-09-27 06:41:00,
2013-09-27 02:46:00,51.0,50.4,30.07,NE,49,0.0,0.0,98,0.00,,,0.00,WUHU216DAVISVP2,2013-09-27 06:46:00,
2013-09-27 02:51:00,51.1,50.5,30.07,NE,49,0.0,0.0,98,0.00,,,0.00,WUHU216DAVISVP2,2013-09-27 06:51:00,
2013-09-27 02:56:00,51.1,50.5,30.07,NE,49,0.0,0.0,98,0.00,,,0.00,WUHU216DAVISVP2,2013-09-27 06:56:00,
2013-09-27 03:00:00,51.0,50.5,30.07,North,0,0.0,0.0,98,0.00,,,0.00,WUHU216DAVISVP2,2013-09-27 07:00:00,
2013-09-27 03:01:00,51.2,50.6,30.07,NE,49,0.0,0.0,98,0.00,,,0.00,WUHU216DAVISVP2,2013-09-27 07:01:00,
2013-09-27 03:06:00,51.2,50.7,30.07,NE,49,0.0,0.0,98,0.00,,,0.00,WUHU216DAVISVP2,2013-09-27 07:06:00,
2013-09-27 03:11:00,51.2,50.7,30.07,NE,49,0.0,0.0,98,0.00,,,0.00,WUHU216DAVISVP2,2013-09-27 07:11:00,
2013-09-27 03:16:00,51.0,50.5,30.07,NE,48,0.0,0.0,98,0.00,,,0.00,WUHU216DAVISVP2,2013-09-27 07:16:00,
2013-09-27 03:21:00,50.7,50.1,30.07,NE,49,0.0,0.0,98,0.00,,,0.00,WUHU216DAVISVP2,2013-09-27 07:21:00,
2013-09-27 03:26:00,51.0,50.4,30.07,NE,48,0.0,0.0,98,0.00,,,0.00,WUHU216DAVISVP2,2013-09-27 07:26:00,
2013-09-27 03:30:00,51.0,50.5,30.07,North,0,0.0,0.0,98,0.00,,,0.00,WUHU216DAVISVP2,2013-09-27 07:30:00,
2013-09-27 03:31:00,50.9,50.3,30.07,NE,49,0.0,0.0,98,0.00,,,0.00,WUHU216DAVISVP2,2013-09-27 07:31:00,
2013-09-27 03:36:00,50.6,50.0,30.07,NE,49,0.0,0.0,98,0.00,,,0.00,WUHU216DAVISVP2,2013-09-27 07:36:00,
2013-09-27 03:41:00,50.3,49.7,30.07,NE,49,0.0,0.0,98,0.00,,,0.00,WUHU216DAVISVP2,2013-09-27 07:41:00,
2013-09-27 03:46:00,50.0,49.4,30.07,NE,49,0.0,0.0,98,0.00,,,0.00,WUHU216DAVISVP2,2013-09-27 07:46:00,
2013-09-27 03:49:00,49.9,49.3,30.07,NE,48,0.0,0.0,98,0.00,,,0.00,WUHU216DAVISVP2,2013-09-27 07:49:00,
2013-09-27 03:54:00,49.6,49.0,30.07,NE,49,0.0,0.0,98,0.00,,,0.00,WUHU216DAVISVP2,2013-09-27 07:54:00,
2013-09-27 03:59:00,49.4,48.8,30.07,NE,49,0.0,0.0,98,0.00,,,0.00,WUHU216DAVISVP2,2013-09-27 07:59:00,
2013-09-27 04:00:00,49.4,48.9,30.07,North,0,0.0,0.0,98,0.00,,,0.00,WUHU216DAVISVP2,2013-09-27 08:00:00,
2013-09-27 04:04:00,49.5,49.0,30.07,NE,49,0.0,0.0,98,0.00,,,0.00,WUHU216DAVISVP2,2013-09-27 08:04:00,
2013-09-27 04:09:00,49.3,48.7,30.07,NE,49,0.0,0.0,98,0.00,,,0.00,WUHU216DAVISVP2,2013-09-27 08:09:00,
2013-09-27 04:14:00,49.1,48.5,30.07,NE,49,0.0,0.0,98,0.00,,,0.00,WUHU216DAVISVP2,2013-09-27 08:14:00,
2013-09-27 04:19:00,49.2,48.6,30.07,NE,47,0.0,0.0,98,0.00,,,0.00,WUHU216DAVISVP2,2013-09-27 08:19:00,
2013-09-27 04:24:00,49.3,48.7,30.08,NE,47,0.0,0.0,98,0.00,,,0.00,WUHU216DAVISVP2,2013-09-27 08:24:00,
2013-09-27 04:29:00,49.5,48.9,30.08,NE,47,0.0,0.0,98,0.00,,,0.00,WUHU216DAVISVP2,2013-09-27 08:29:00,
2013-09-27 04:30:00,49.5,49.0,30.08,North,0,0.0,0.0,98,0.00,,,0.00,WUHU216DAVISVP2,2013-09-27 08:30:00,
2013-09-27 04:34:00,49.8,49.5,30.08,NE,47,0.0,0.0,99,0.00,,,0.00,WUHU216DAVISVP2,2013-09-27 08:34:00,
2013-09-27 04:39:00,49.6,49.0,30.08,NE,47,0.0,0.0,98,0.00,,,0.00,WUHU216DAVISVP2,2013-09-27 08:39:00,
2013-09-27 04:44:00,49.5,48.9,30.08,NE,47,0.0,0.0,98,0.00,,,0.00,WUHU216DAVISVP2,2013-09-27 08:44:00,
2013-09-27 04:49:00,49.5,48.9,30.08,NE,47,0.0,0.0,98,0.00,,,0.00,WUHU216DAVISVP2,2013-09-27 08:49:00,
2013-09-27 04:54:00,49.2,48.7,30.08,NE,47,0.0,0.0,98,0.00,,,0.00,WUHU216DAVISVP2,2013-09-27 08:54:00,
2013-09-27 04:59:00,48.8,48.3,30.08,NE,47,0.0,0.0,98,0.00,,,0.00,WUHU216DAVISVP2,2013-09-27 08:59:00,
2013-09-27 05:00:00,48.9,48.4,30.08,North,0,0.0,0.0,98,0.00,,,0.00,WUHU216DAVISVP2,2013-09-27 09:00:00,
2013-09-27 05:04:00,48.5,48.0,30.08,NE,47,0.0,0.0,98,0.00,,,0.00,WUHU216DAVISVP2,2013-09-27 09:04:00,
2013-09-27 05:09:00,48.2,47.6,30.08,NE,47,0.0,0.0,98,0.00,,,0.00,WUHU216DAVISVP2,2013-09-27 09:09:00,
2013-09-27 05:14:00,48.0,47.4,30.08,NE,47,0.0,0.0,98,0.00,,,0.00,WUHU216DAVISVP2,2013-09-27 09:14:00,
2013-09-27 05:19:00,48.1,47.5,30.09,NE,47,0.0,0.0,98,0.00,,,0.00,WUHU216DAVISVP2,2013-09-27 09:19:00,
2013-09-27 05:24:00,48.2,47.6,30.09,NE,46,0.0,0.0,98,0.00,,,0.00,WUHU216DAVISVP2,2013-09-27 09:24:00,
2013-09-27 05:29:00,48.2,47.6,30.09,NE,47,0.0,0.0,98,0.00,,,0.00,WUHU216DAVISVP2,2013-09-27 09:29:00,
2013-09-27 05:30:00,48.2,47.7,30.09,North,0,0.0,0.0,98,0.00,,,0.00,WUHU216DAVISVP2,2013-09-27 09:30:00,
2013-09-27 05:34:00,48.4,48.1,30.09,NE,47,0.0,0.0,99,0.00,,,0.00,WUHU216DAVISVP2,2013-09-27 09:34:00,
2013-09-27 05:39:00,48.7,48.4,30.09,NE,47,0.0,0.0,99,0.00,,,0.00,WUHU216DAVISVP2,2013-09-27 09:39:00,
2013-09-27 05:44:00,48.6,48.3,30.09,NE,47,0.0,0.0,99,0.00,,,0.00,WUHU216DAVISVP2,2013-09-27 09:44:00,
2013-09-27 05:49:00,48.4,48.1,30.09,NE,47,0.0,0.0,99,0.00,,,0.00,WUHU216DAVISVP2,2013-09-27 09:49:00,
2013-09-27 05:54:00,48.2,47.9,30.10,NE,47,0.0,0.0,99,0.00,,,0.00,WUHU216DAVISVP2,2013-09-27 09:54:00,
2013-09-27 05:59:00,48.0,47.4,30.10,NE,48,0.0,0.0,98,0.00,,,0.00,WUHU216DAVISVP2,2013-09-27 09:59:00,
2013-09-27 06:00:00,48.0,47.5,30.10,North,0,0.0,0.0,98,0.00,,,0.00,WUHU216DAVISVP2,2013-09-27 10:00:00,
2013-09-27 06:04:00,47.8,47.2,30.10,NE,47,0.0,0.0,98,0.00,,,0.00,WUHU216DAVISVP2,2013-09-27 10:04:00,
2013-09-27 06:09:00,47.7,47.1,30.10,NE,47,0.0,0.0,98,0.00,,,0.00,WUHU216DAVISVP2,2013-09-27 10:09:00,
2013-09-27 06:14:00,47.6,47.0,30.10,NE,49,0.0,0.0,98,0.00,,,0.00,WUHU216DAVISVP2,2013-09-27 10:14:00,
2013-09-27 06:19:00,47.6,47.3,30.11,NE,47,0.0,0.0,99,0.00,,,0.00,WUHU216DAVISVP2,2013-09-27 10:19:00,
2013-09-27 06:24:00,47.8,47.5,30.11,NE,48,0.0,0.0,99,0.00,,,0.00,WUHU216DAVISVP2,2013-09-27 10:24:00,
2013-09-27 06:29:00,47.8,47.5,30.11,NE,47,0.0,0.0,99,0.00,,,0.00,WUHU216DAVISVP2,2013-09-27 10:29:00,
2013-09-27 06:30:00,47.8,47.5,30.11,North,0,0.0,0.0,99,0.00,,,0.00,WUHU216DAVISVP2,2013-09-27 10:30:00,
2013-09-27 06:34:00,48.1,47.8,30.11,NE,47,0.0,0.0,99,0.00,,,0.00,WUHU216DAVISVP2,2013-09-27 10:34:00,
2013-09-27 06:39:00,47.9,47.6,30.11,NE,46,0.0,0.0,99,0.00,,,0.00,WUHU216DAVISVP2,2013-09-27 10:39:00,
2013-09-27 06:44:00,47.7,47.4,30.12,NE,47,0.0,0.0,99,0.00,,,0.00,WUHU216DAVISVP2,2013-09-27 10:44:00,
2013-09-27 06:49:00,47.5,47.2,30.12,NE,47,0.0,0.0,99,0.00,,,0.00,WUHU216DAVISVP2,2013-09-27 10:49:00,
2013-09-27 06:54:00,47.4,47.1,30.12,NE,49,0.0,0.0,99,0.00,,,0.00,WUHU216DAVISVP2,2013-09-27 10:54:00,
2013-09-27 06:59:00,47.3,47.0,30.12,NE,49,0.0,0.0,99,0.00,,,0.00,WUHU216DAVISVP2,2013-09-27 10:59:00,
2013-09-27 07:00:00,47.3,47.0,30.12,North,0,0.0,0.0,99,0.00,,,0.00,WUHU216DAVISVP2,2013-09-27 11:00:00,
2013-09-27 07:04:00,47.1,46.8,30.12,NE,48,0.0,0.0,99,0.00,,,0.00,WUHU216DAVISVP2,2013-09-27 11:04:00,
2013-09-27 07:09:00,46.9,46.6,30.12,NE,49,0.0,0.0,99,0.00,,,0.00,WUHU216DAVISVP2,2013-09-27 11:09:00,
2013-09-27 07:14:00,47.0,46.7,30.13,NE,49,0.0,0.0,99,0.00,,,0.00,WUHU216DAVISVP2,2013-09-27 11:14:00,
2013-09-27 07:19:00,47.4,47.1,30.13,NE,48,0.0,0.0,99,0.00,,,0.00,WUHU216DAVISVP2,2013-09-27 11:19:00,
2013-09-27 07:24:00,47.5,47.2,30.13,NE,49,0.0,0.0,99,0.00,,,0.00,WUHU216DAVISVP2,2013-09-27 11:24:00,
2013-09-27 07:29:00,47.7,47.4,30.14,NE,47,0.0,0.0,99,0.00,,,0.00,WUHU216DAVISVP2,2013-09-27 11:29:00,
2013-09-27 07:30:00,47.6,47.3,30.13,North,0,0.0,0.0,99,0.00,,,0.00,WUHU216DAVISVP2,2013-09-27 11:30:00,
2013-09-27 07:34:00,48.0,47.7,30.14,NE,47,0.0,0.0,99,0.00,,,0.00,WUHU216DAVISVP2,2013-09-27 11:34:00,
2013-09-27 07:39:00,48.5,48.2,30.14,NE,47,0.0,0.0,99,0.00,,,0.00,WUHU216DAVISVP2,2013-09-27 11:39:00,
2013-09-27 07:44:00,49.2,48.9,30.14,NE,47,0.0,0.0,99,0.00,,,0.00,WUHU216DAVISVP2,2013-09-27 11:44:00,
2013-09-27 07:49:00,49.9,49.6,30.14,NE,47,0.0,0.0,99,0.00,,,0.00,WUHU216DAVISVP2,2013-09-27 11:49:00,
2013-09-27 07:54:00,50.7,50.4,30.14,NE,47,0.0,0.0,99,0.00,,,0.00,WUHU216DAVISVP2,2013-09-27 11:54:00,
2013-09-27 07:59:00,51.6,51.3,30.15,NE,46,0.0,0.0,99,0.00,,,0.00,WUHU216DAVISVP2,2013-09-27 11:59:00,
2013-09-27 08:00:00,51.5,51.2,30.15,North,0,0.0,0.0,99,0.00,,,0.00,WUHU216DAVISVP2,2013-09-27 12:00:00,
2013-09-27 08:04:00,52.4,52.1,30.15,NE,47,0.0,0.0,99,0.00,,,0.00,WUHU216DAVISVP2,2013-09-27 12:04:00,
2013-09-27 08:09:00,53.1,52.8,30.15,NE,47,0.0,0.0,99,0.00,,,0.00,WUHU216DAVISVP2,2013-09-27 12:09:00,
2013-09-27 08:14:00,54.3,54.0,30.15,NE,47,0.0,0.0,99,0.00,,,0.00,WUHU216DAVISVP2,2013-09-27 12:14:00,
2013-09-27 08:19:00,53.4,52.8,30.15,NE,47,0.0,0.0,98,0.00,,,0.00,WUHU216DAVISVP2,2013-09-27 12:19:00,
2013-09-27 08:24:00,53.3,52.7,30.15,NE,47,0.0,0.0,98,0.00,,,0.00,WUHU216DAVISVP2,2013-09-27 12:24:00,
2013-09-27 08:29:00,54.6,54.0,30.15,NE,47,0.0,0.0,98,0.00,,,0.00,WUHU216DAVISVP2,2013-09-27 12:29:00,
2013-09-27 08:30:00,54.4,53.8,30.15,North,0,0.0,0.0,98,0.00,,,0.00,WUHU216DAVISVP2,2013-09-27 12:30:00,
2013-09-27 08:34:00,55.6,55.0,30.15,NE,47,0.0,0.0,98,0.00,,,0.00,WUHU216DAVISVP2,2013-09-27 12:34:00,
2013-09-27 08:39:00,56.2,55.6,30.16,NE,47,0.0,0.0,98,0.00,,,0.00,WUHU216DAVISVP2,2013-09-27 12:39:00,
2013-09-27 08:44:00,57.4,56.8,30.16,NE,46,0.0,0.0,98,0.00,,,0.00,WUHU216DAVISVP2,2013-09-27 12:44:00,
2013-09-27 08:49:00,58.6,57.4,30.16,NE,47,0.0,0.0,96,0.00,,,0.00,WUHU216DAVISVP2,2013-09-27 12:49:00,
2013-09-27 08:54:00,59.6,57.2,30.16,NE,47,0.0,0.0,92,0.00,,,0.00,WUHU216DAVISVP2,2013-09-27 12:54:00,
2013-09-27 08:59:00,60.4,57.1,30.16,NE,47,0.0,0.0,89,0.00,,,0.00,WUHU216DAVISVP2,2013-09-27 12:59:00,
2013-09-27 09:00:00,60.3,57.0,30.16,North,0,0.0,0.0,89,0.00,,,0.00,WUHU216DAVISVP2,2013-09-27 13:00:00,
2013-09-27 09:04:00,61.5,57.0,30.16,NE,47,0.0,0.0,85,0.00,,,0.00,WUHU216DAVISVP2,2013-09-27 13:04:00,
2013-09-27 09:09:00,62.2,57.0,30.16,NE,46,0.0,0.0,83,0.00,,,0.00,WUHU216DAVISVP2,2013-09-27 13:09:00,
2013-09-27 09:14:00,62.1,56.6,30.16,ENE,61,0.0,0.0,82,0.00,,,0.00,WUHU216DAVISVP2,2013-09-27 13:14:00,
2013-09-27 09:19:00,61.2,56.7,30.16,ENE,70,0.0,0.0,85,0.00,,,0.00,WUHU216DAVISVP2,2013-09-27 13:19:00,
2013-09-27 09:24:00,61.3,56.8,30.17,ENE,58,0.0,0.0,85,0.00,,,0.00,WUHU216DAVISVP2,2013-09-27 13:24:00,
2013-09-27 09:29:00,61.6,57.1,30.16,NE,51,0.0,0.0,85,0.00,,,0.00,WUHU216DAVISVP2,2013-09-27 13:29:00,
2013-09-27 09:30:00,61.6,57.0,30.16,North,0,0.0,0.0,85,0.00,,,0.00,WUHU216DAVISVP2,2013-09-27 13:30:00,
2013-09-27 09:34:00,61.7,56.8,30.17,ENE,65,0.0,0.0,84,0.00,,,0.00,WUHU216DAVISVP2,2013-09-27 13:34:00,
2013-09-27 09:39:00,62.0,57.4,30.17,NE,53,0.0,0.0,85,0.00,,,0.00,WUHU216DAVISVP2,2013-09-27 13:39:00,
2013-09-27 09:44:00,62.2,57.3,30.17,ENE,57,0.0,0.0,84,0.00,,,0.00,WUHU216DAVISVP2,2013-09-27 13:44:00,
2013-09-27 09:49:00,62.6,57.7,30.17,ENE,69,0.0,0.0,84,0.00,,,0.00,WUHU216DAVISVP2,2013-09-27 13:49:00,
2013-09-27 09:54:00,62.8,57.6,30.17,ENE,72,0.0,0.0,83,0.00,,,0.00,WUHU216DAVISVP2,2013-09-27 13:54:00,
2013-09-27 09:59:00,63.1,58.2,30.17,NE,53,0.0,0.0,84,0.00,,,0.00,WUHU216DAVISVP2,2013-09-27 13:59:00,
2013-09-27 10:00:00,63.1,58.2,30.17,North,0,0.0,0.0,84,0.00,,,0.00,WUHU216DAVISVP2,2013-09-27 14:00:00,
2013-09-27 10:04:00,63.7,58.5,30.17,East,93,0.0,0.0,83,0.00,,,0.00,WUHU216DAVISVP2,2013-09-27 14:04:00,
2013-09-27 10:09:00,64.2,58.6,30.17,ENE,67,0.0,0.0,82,0.00,,,0.00,WUHU216DAVISVP2,2013-09-27 14:09:00,
2013-09-27 10:14:00,64.4,58.8,30.17,NE,44,0.0,0.0,82,0.00,,,0.00,WUHU216DAVISVP2,2013-09-27 14:14:00,
2013-09-27 10:19:00,64.4,58.5,30.17,NW,315,0.0,0.0,81,0.00,,,0.00,WUHU216DAVISVP2,2013-09-27 14:19:00,
2013-09-27 10:24:00,65.0,59.1,30.17,ENE,72,0.0,0.0,81,0.00,,,0.00,WUHU216DAVISVP2,2013-09-27 14:24:00,
2013-09-27 10:29:00,65.2,57.9,30.17,NE,52,0.0,0.0,77,0.00,,,0.00,WUHU216DAVISVP2,2013-09-27 14:29:00,
2013-09-27 10:30:00,65.2,57.8,30.17,North,0,0.0,0.0,77,0.00,,,0.00,WUHU216DAVISVP2,2013-09-27 14:30:00,
2013-09-27 10:34:00,65.2,57.9,30.18,ENE,70,0.0,0.0,77,0.00,,,0.00,WUHU216DAVISVP2,2013-09-27 14:34:00,
2013-09-27 10:39:00,65.7,58.7,30.18,NNE,27,0.0,0.0,78,0.00,,,0.00,WUHU216DAVISVP2,2013-09-27 14:39:00,
2013-09-27 10:44:00,65.7,57.9,30.18,ENE,69,0.0,1.0,76,0.00,,,0.00,WUHU216DAVISVP2,2013-09-27 14:44:00,
2013-09-27 10:49:00,65.7,58.7,30.17,NNE,27,0.0,1.0,78,0.00,,,0.00,WUHU216DAVISVP2,2013-09-27 14:49:00,
2013-09-27 10:54:00,66.0,58.7,30.17,ESE,109,0.0,1.0,77,0.00,,,0.00,WUHU216DAVISVP2,2013-09-27 14:54:00,
2013-09-27 10:59:00,66.3,58.3,30.17,North,6,0.0,1.0,75,0.00,,,0.00,WUHU216DAVISVP2,2013-09-27 14:59:00,
2013-09-27 11:00:00,66.3,58.1,30.17,ENE,68,0.0,1.0,75,0.00,,,0.00,WUHU216DAVISVP2,2013-09-27 15:00:00,
2013-09-27 11:04:00,66.7,57.5,30.17,NE,49,0.0,1.0,72,0.00,,,0.00,WUHU216DAVISVP2,2013-09-27 15:04:00,
2013-09-27 11:09:00,66.4,57.6,30.17,NE,56,0.0,0.0,73,0.00,,,0.00,WUHU216DAVISVP2,2013-09-27 15:09:00,
2013-09-27 11:14:00,66.7,57.5,30.17,NE,53,0.0,2.0,72,0.00,,,0.00,WUHU216DAVISVP2,2013-09-27 15:14:00,
2013-09-27 11:19:00,66.8,57.3,30.17,NE,47,0.0,2.0,71,0.00,,,0.00,WUHU216DAVISVP2,2013-09-27 15:19:00,
2013-09-27 11:24:00,66.8,58.4,30.17,NW,314,0.0,1.0,74,0.00,,,0.00,WUHU216DAVISVP2,2013-09-27 15:24:00,
2013-09-27 11:29:00,67.6,58.4,30.17,NW,314,0.0,1.0,72,0.00,,,0.00,WUHU216DAVISVP2,2013-09-27 15:29:00,
2013-09-27 11:30:00,67.5,58.2,30.17,NNE,23,0.0,2.0,72,0.00,,,0.00,WUHU216DAVISVP2,2013-09-27 15:30:00,
2013-09-27 11:34:00,67.8,57.8,30.17,NW,326,0.0,1.0,70,0.00,,,0.00,WUHU216DAVISVP2,2013-09-27 15:34:00,
2013-09-27 11:39:00,68.1,57.5,30.17,ENE,63,0.0,1.0,69,0.00,,,0.00,WUHU216DAVISVP2,2013-09-27 15:39:00,
2013-09-27 11:44:00,67.9,56.9,30.17,NE,34,0.0,1.0,68,0.00,,,0.00,WUHU216DAVISVP2,2013-09-27 15:44:00,
2013-09-27 11:49:00,68.2,55.7,30.17,NE,53,3.0,12.0,64,0.00,,,0.00,WUHU216DAVISVP2,2013-09-27 15:49:00,
2013-09-27 11:54:00,68.1,56.5,30.17,ENE,63,7.0,13.0,66,0.00,,,0.00,WUHU216DAVISVP2,2013-09-27 15:54:00,
2013-09-27 11:59:00,68.5,56.5,30.17,ENE,63,7.0,13.0,65,0.00,,,0.00,WUHU216DAVISVP2,2013-09-27 15:59:00,
2013-09-27 12:00:00,68.4,57.0,30.17,ENE,68,2.0,13.0,67,0.00,,,0.00,WUHU216DAVISVP2,2013-09-27 16:00:00,
2013-09-27 12:04:00,68.3,56.7,30.17,NNW,342,0.0,15.0,66,0.00,,,0.00,WUHU216DAVISVP2,2013-09-27 16:04:00,
2013-09-27 12:09:00,68.5,56.9,30.17,NE,56,5.0,15.0,66,0.00,,,0.00,WUHU216DAVISVP2,2013-09-27 16:09:00,
2013-09-27 12:14:00,68.2,56.6,30.17,ESE,117,6.0,14.0,66,0.00,,,0.00,WUHU216DAVISVP2,2013-09-27 16:14:00,
2013-09-27 12:19:00,68.4,57.2,30.17,SE,128,1.0,14.0,67,0.00,,,0.00,WUHU216DAVISVP2,2013-09-27 16:19:00,
2013-09-27 12:24:00,68.8,56.7,30.17,NE,53,9.0,10.0,65,0.00,,,0.00,WUHU216DAVISVP2,2013-09-27 16:24:00,
2013-09-27 12:29:00,69.4,56.9,30.17,WSW,252,0.0,10.0,64,0.00,,,0.00,WUHU216DAVISVP2,2013-09-27 16:29:00,
2013-09-27 12:30:00,69.3,56.2,30.17,ENE,68,5.0,15.0,63,0.00,,,0.00,WUHU216DAVISVP2,2013-09-27 16:30:00,
2013-09-27 12:34:00,69.9,56.9,30.17,NE,54,1.0,9.0,63,0.00,,,0.00,WUHU216DAVISVP2,2013-09-27 16:34:00,
2013-09-27 12:39:00,69.7,56.3,30.17,NE,49,4.0,10.0,62,0.00,,,0.00,WUHU216DAVISVP2,2013-09-27 16:39:00,
2013-09-27 12:44:00,69.4,56.0,30.17,NNE,27,5.0,11.0,62,0.00,,,0.00,WUHU216DAVISVP2,2013-09-27 16:44:00,
2013-09-27 12:49:00,69.3,55.7,30.16,ENE,68,3.0,11.0,62,0.00,,,0.00,WUHU216DAVISVP2,2013-09-27 16:49:00,
2013-09-27 12:54:00,68.9,55.3,30.16,ENE,63,3.0,10.0,62,0.00,,,0.00,WUHU216DAVISVP2,2013-09-27 16:54:00,
2013-09-27 12:59:00,68.8,54.8,30.16,ENE,57,2.0,10.0,61,0.00,,,0.00,WUHU216DAVISVP2,2013-09-27 16:59:00,
2013-09-27 13:00:00,68.9,54.4,30.16,ENE,68,4.0,11.0,60,0.00,,,0.00,WUHU216DAVISVP2,2013-09-27 17:00:00,
2013-09-27 13:04:00,68.8,55.7,30.16,SSE,152,0.0,8.0,63,0.00,,,0.00,WUHU216DAVISVP2,2013-09-27 17:04:00,
2013-09-27 13:09:00,69.4,56.0,30.16,NE,53,1.0,9.0,62,0.00,,,0.00,WUHU216DAVISVP2,2013-09-27 17:09:00,
2013-09-27 13:14:00,69.4,55.5,30.16,ENE,61,5.0,9.0,61,0.00,,,0.00,WUHU216DAVISVP2,2013-09-27 17:14:00,
2013-09-27 13:19:00,69.0,56.1,30.16,ENE,63,3.0,8.0,63,0.00,,,0.00,WUHU216DAVISVP2,2013-09-27 17:19:00,
2013-09-27 13:24:00,69.4,55.5,30.15,NE,41,3.0,8.0,61,0.00,,,0.00,WUHU216DAVISVP2,2013-09-27 17:24:00,
2013-09-27 13:26:00,69.6,56.6,30.15,NE,45,0.0,8.0,63,0.00,,,0.00,WUHU216DAVISVP2,2013-09-27 17:26:00,
2013-09-27 13:30:00,69.7,55.6,30.16,ENE,68,2.0,9.0,61,0.00,,,0.00,WUHU216DAVISVP2,2013-09-27 17:30:00,
2013-09-27 13:31:00,69.7,56.3,30.15,ENE,78,0.0,6.0,62,0.00,,,0.00,WUHU216DAVISVP2,2013-09-27 17:31:00,
2013-09-27 13:36:00,70.1,56.7,30.15,ENE,65,0.0,6.0,62,0.00,,,0.00,WUHU216DAVISVP2,2013-09-27 17:36:00,
2013-09-27 13:41:00,70.8,56.9,30.15,ENE,60,7.0,8.0,61,0.00,,,0.00,WUHU216DAVISVP2,2013-09-27 17:41:00,
2013-09-27 13:46:00,71.2,56.8,30.15,NE,54,0.0,8.0,60,0.00,,,0.00,WUHU216DAVISVP2,2013-09-27 17:46:00,
2013-09-27 13:51:00,71.2,56.3,30.15,ESE,108,1.0,12.0,59,0.00,,,0.00,WUHU216DAVISVP2,2013-09-27 17:51:00,
2013-09-27 13:56:00,71.6,56.5,30.15,ENE,67,0.0,12.0,59,0.00,,,0.00,WUHU216DAVISVP2,2013-09-27 17:56:00,
2013-09-27 14:00:00,72.0,56.9,30.14,ENE,68,1.0,12.0,59,0.00,,,0.00,WUHU216DAVISVP2,2013-09-27 18:00:00,
2013-09-27 14:01:00,72.4,56.5,30.14,East,83,0.0,10.0,57,0.00,,,0.00,WUHU216DAVISVP2,2013-09-27 18:01:00,
2013-09-27 14:06:00,72.6,55.5,30.14,SSE,150,0.0,10.0,55,0.00,,,0.00,WUHU216DAVISVP2,2013-09-27 18:06:00,
2013-09-27 14:11:00,72.2,55.3,30.14,ENE,61,5.0,9.0,55,0.00,,,0.00,WUHU216DAVISVP2,2013-09-27 18:11:00,
2013-09-27 14:16:00,71.4,55.5,30.14,NNE,29,8.0,9.0,57,0.00,,,0.00,WUHU216DAVISVP2,2013-09-27 18:16:00,
2013-09-27 14:21:00,70.9,55.6,30.13,NE,56,5.0,9.0,58,0.00,,,0.00,WUHU216DAVISVP2,2013-09-27 18:21:00,
2013-09-27 14:26:00,70.5,55.7,30.13,ENE,57,3.0,8.0,59,0.00,,,0.00,WUHU216DAVISVP2,2013-09-27 18:26:00,
2013-09-27 14:30:00,70.7,56.6,30.13,ENE,68,2.0,9.0,61,0.00,,,0.00,WUHU216DAVISVP2,2013-09-27 18:30:00,
2013-09-27 14:31:00,70.7,55.4,30.13,NE,56,0.0,9.0,58,0.00,,,0.00,WUHU216DAVISVP2,2013-09-27 18:31:00,
2013-09-27 14:36:00,70.9,55.1,30.13,ENE,67,8.0,9.0,57,0.00,,,0.00,WUHU216DAVISVP2,2013-09-27 18:36:00,
2013-09-27 14:41:00,71.4,55.5,30.13,NNE,30,4.0,9.0,57,0.00,,,0.00,WUHU216DAVISVP2,2013-09-27 18:41:00,
2013-09-27 14:46:00,71.5,55.6,30.13,NE,49,6.0,9.0,57,0.00,,,0.00,WUHU216DAVISVP2,2013-09-27 18:46:00,
2013-09-27 14:51:00,71.4,55.0,30.13,ENE,68,1.0,8.0,56,0.00,,,0.00,WUHU216DAVISVP2,2013-09-27 18:51:00,
2013-09-27 14:56:00,70.7,54.9,30.13,ENE,63,6.0,8.0,57,0.00,,,0.00,WUHU216DAVISVP2,2013-09-27 18:56:00,
2013-09-27 15:00:00,70.5,55.0,30.13,ENE,68,3.0,9.0,58,0.00,,,0.00,WUHU216DAVISVP2,2013-09-27 19:00:00,
2013-09-27 15:01:00,70.5,54.5,30.13,ENE,58,0.0,7.0,57,0.00,,,0.00,WUHU216DAVISVP2,2013-09-27 19:01:00,
2013-09-27 15:06:00,71.2,54.7,30.13,NNE,19,5.0,6.0,56,0.00,,,0.00,WUHU216DAVISVP2,2013-09-27 19:06:00,
2013-09-27 15:11:00,71.6,55.1,30.12,NNE,32,0.0,6.0,56,0.00,,,0.00,WUHU216DAVISVP2,2013-09-27 19:11:00,
2013-09-27 15:16:00,71.3,54.3,30.12,NE,51,7.0,14.0,55,0.00,,,0.00,WUHU216DAVISVP2,2013-09-27 19:16:00,
2013-09-27 15:21:00,71.0,55.0,30.12,East,89,0.0,14.0,57,0.00,,,0.00,WUHU216DAVISVP2,2013-09-27 19:21:00,
2013-09-27 15:26:00,70.5,55.0,30.12,NNE,16,0.0,13.0,58,0.00,,,0.00,WUHU216DAVISVP2,2013-09-27 19:26:00,
2013-09-27 15:30:00,70.4,54.9,30.12,ENE,68,2.0,14.0,58,0.00,,,0.00,WUHU216DAVISVP2,2013-09-27 19:30:00,
2013-09-27 15:31:00,70.4,54.6,30.12,NE,41,0.0,13.0,57,0.00,,,0.00,WUHU216DAVISVP2,2013-09-27 19:31:00,
2013-09-27 15:36:00,70.9,54.4,30.12,SE,141,0.0,7.0,56,0.00,,,0.00,WUHU216DAVISVP2,2013-09-27 19:36:00,
2013-09-27 15:41:00,71.6,55.1,30.12,NNE,27,5.0,6.0,56,0.00,,,0.00,WUHU216DAVISVP2,2013-09-27 19:41:00,
2013-09-27 15:46:00,72.3,55.4,30.12,SSW,207,0.0,11.0,55,0.00,,,0.00,WUHU216DAVISVP2,2013-09-27 19:46:00,
2013-09-27 15:51:00,72.3,54.9,30.12,ENE,58,7.0,11.0,54,0.00,,,0.00,WUHU216DAVISVP2,2013-09-27 19:51:00,
2013-09-27 15:56:00,71.8,54.9,30.12,East,91,0.0,10.0,55,0.00,,,0.00,WUHU216DAVISVP2,2013-09-27 19:56:00,
2013-09-27 16:00:00,71.6,55.1,30.12,ENE,68,2.0,11.0,56,0.00,,,0.00,WUHU216DAVISVP2,2013-09-27 20:00:00,
2013-09-27 16:01:00,71.3,54.9,30.12,NE,51,2.0,9.0,56,0.00,,,0.00,WUHU216DAVISVP2,2013-09-27 20:01:00,
2013-09-27 16:06:00,71.0,55.6,30.13,NE,51,2.0,9.0,58,0.00,,,0.00,WUHU216DAVISVP2,2013-09-27 20:06:00,
2013-09-27 16:11:00,71.3,55.4,30.12,East,94,2.0,10.0,57,0.00,,,0.00,WUHU216DAVISVP2,2013-09-27 20:11:00,
2013-09-27 16:16:00,71.7,54.8,30.13,ENE,75,2.0,10.0,55,0.00,,,0.00,WUHU216DAVISVP2,2013-09-27 20:16:00,
2013-09-27 16:21:00,71.6,54.7,30.12,NNE,27,3.0,9.0,55,0.00,,,0.00,WUHU216DAVISVP2,2013-09-27 20:21:00,
2013-09-27 16:26:00,72.2,54.8,30.12,ENE,71,0.0,9.0,54,0.00,,,0.00,WUHU216DAVISVP2,2013-09-27 20:26:00,
2013-09-27 16:30:00,72.3,54.2,30.12,ENE,68,3.0,10.0,53,0.00,,,0.00,WUHU216DAVISVP2,2013-09-27 20:30:00,
2013-09-27 16:31:00,72.4,55.3,30.12,ENE,61,2.0,7.0,55,0.00,,,0.00,WUHU216DAVISVP2,2013-09-27 20:31:00,
2013-09-27 16:36:00,73.0,55.4,30.12,ENE,65,0.0,7.0,54,0.00,,,0.00,WUHU216DAVISVP2,2013-09-27 20:36:00,
2013-09-27 16:41:00,73.3,54.7,30.12,ENE,63,3.0,10.0,52,0.00,,,0.00,WUHU216DAVISVP2,2013-09-27 20:41:00,
2013-09-27 16:46:00,72.9,54.9,30.12,East,92,1.0,10.0,53,0.00,,,0.00,WUHU216DAVISVP2,2013-09-27 20:46:00,
2013-09-27 16:51:00,72.3,54.9,30.12,ENE,65,7.0,15.0,54,0.00,,,0.00,WUHU216DAVISVP2,2013-09-27 20:51:00,
2013-09-27 16:56:00,71.6,55.2,30.12,ENE,61,3.0,15.0,56,0.00,,,0.00,WUHU216DAVISVP2,2013-09-27 20:56:00,
2013-09-27 17:00:00,71.4,54.9,30.12,ENE,68,3.0,15.0,56,0.00,,,0.00,WUHU216DAVISVP2,2013-09-27 21:00:00,
2013-09-27 17:01:00,71.3,55.4,30.12,ENE,65,1.0,13.0,57,0.00,,,0.00,WUHU216DAVISVP2,2013-09-27 21:01:00,
2013-09-27 17:06:00,71.4,55.5,30.12,ENE,59,1.0,13.0,57,0.00,,,0.00,WUHU216DAVISVP2,2013-09-27 21:06:00,
2013-09-27 17:11:00,72.0,55.1,30.12,NE,55,0.0,7.0,55,0.00,,,0.00,WUHU216DAVISVP2,2013-09-27 21:11:00,
2013-09-27 17:16:00,72.0,54.6,30.12,ENE,59,2.0,6.0,54,0.00,,,0.00,WUHU216DAVISVP2,2013-09-27 21:16:00,
2013-09-27 17:21:00,71.9,54.5,30.12,NE,51,3.0,6.0,54,0.00,,,0.00,WUHU216DAVISVP2,2013-09-27 21:21:00,
2013-09-27 17:26:00,71.9,54.5,30.12,ENE,58,2.0,5.0,54,0.00,,,0.00,WUHU216DAVISVP2,2013-09-27 21:26:00,
2013-09-27 17:30:00,71.8,54.8,30.12,ENE,68,2.0,7.0,55,0.00,,,0.00,WUHU216DAVISVP2,2013-09-27 21:30:00,
2013-09-27 17:31:00,71.8,54.9,30.12,NE,41,0.0,5.0,55,0.00,,,0.00,WUHU216DAVISVP2,2013-09-27 21:31:00,
2013-09-27 17:36:00,71.8,54.9,30.12,NNW,333,0.0,5.0,55,0.00,,,0.00,WUHU216DAVISVP2,2013-09-27 21:36:00,
2013-09-27 17:41:00,71.9,55.5,30.12,ENE,60,10.0,10.0,56,0.00,,,0.00,WUHU216DAVISVP2,2013-09-27 21:41:00,
2013-09-27 17:46:00,71.8,55.9,30.12,NE,49,5.0,10.0,57,0.00,,,0.00,WUHU216DAVISVP2,2013-09-27 21:46:00,
2013-09-27 17:51:00,71.6,55.6,30.12,ENE,60,5.0,10.0,57,0.00,,,0.00,WUHU216DAVISVP2,2013-09-27 21:51:00,
2013-09-27 17:56:00,71.3,55.9,30.12,NE,49,1.0,9.0,58,0.00,,,0.00,WUHU216DAVISVP2,2013-09-27 21:56:00,
2013-09-27 18:00:00,71.2,55.7,30.12,ENE,68,3.0,10.0,58,0.00,,,0.00,WUHU216DAVISVP2,2013-09-27 22:00:00,
2013-09-27 18:01:00,71.1,55.7,30.13,ENE,68,1.0,7.0,58,0.00,,,0.00,WUHU216DAVISVP2,2013-09-27 22:01:00,
2013-09-27 18:06:00,70.7,55.7,30.12,NE,50,0.0,7.0,59,0.00,,,0.00,WUHU216DAVISVP2,2013-09-27 22:06:00,
2013-09-27 18:11:00,70.7,55.8,30.13,ENE,68,0.0,6.0,59,0.00,,,0.00,WUHU216DAVISVP2,2013-09-27 22:11:00,
2013-09-27 18:16:00,70.7,56.3,30.12,NE,51,0.0,4.0,60,0.00,,,0.00,WUHU216DAVISVP2,2013-09-27 22:16:00,
2013-09-27 18:21:00,70.7,56.1,30.13,ENE,59,4.0,6.0,60,0.00,,,0.00,WUHU216DAVISVP2,2013-09-27 22:21:00,
2013-09-27 18:26:00,70.6,56.2,30.13,NE,53,5.0,8.0,60,0.00,,,0.00,WUHU216DAVISVP2,2013-09-27 22:26:00,
2013-09-27 18:30:00,70.5,55.5,30.13,ENE,68,2.0,8.0,59,0.00,,,0.00,WUHU216DAVISVP2,2013-09-27 22:30:00,
2013-09-27 18:31:00,70.3,55.5,30.13,ENE,57,1.0,8.0,59,0.00,,,0.00,WUHU216DAVISVP2,2013-09-27 22:31:00,
2013-09-27 18:36:00,70.1,55.7,30.13,ENE,58,3.0,8.0,60,0.00,,,0.00,WUHU216DAVISVP2,2013-09-27 22:36:00,
2013-09-27 18:41:00,69.9,55.6,30.13,ENE,69,0.0,7.0,60,0.00,,,0.00,WUHU216DAVISVP2,2013-09-27 22:41:00,
2013-09-27 18:46:00,69.6,55.7,30.13,South,169,0.0,7.0,61,0.00,,,0.00,WUHU216DAVISVP2,2013-09-27 22:46:00,
2013-09-27 18:51:00,69.2,55.8,30.13,NE,51,0.0,5.0,62,0.00,,,0.00,WUHU216DAVISVP2,2013-09-27 22:51:00,
2013-09-27 18:56:00,68.7,55.8,30.13,SSE,149,0.0,5.0,63,0.00,,,0.00,WUHU216DAVISVP2,2013-09-27 22:56:00,
2013-09-27 19:00:00,68.5,55.8,30.13,ENE,68,1.0,8.0,64,0.00,,,0.00,WUHU216DAVISVP2,2013-09-27 23:00:00,
2013-09-27 19:01:00,68.3,56.3,30.13,ESE,115,0.0,3.0,65,0.00,,,0.00,WUHU216DAVISVP2,2013-09-27 23:01:00,
2013-09-27 19:06:00,67.8,56.2,30.13,ENE,67,0.0,3.0,66,0.00,,,0.00,WUHU216DAVISVP2,2013-09-27 23:06:00,
2013-09-27 19:11:00,67.4,56.2,30.13,ENE,65,0.0,3.0,67,0.00,,,0.00,WUHU216DAVISVP2,2013-09-27 23:11:00,
2013-09-27 19:16:00,67.0,56.3,30.13,East,96,0.0,3.0,68,0.00,,,0.00,WUHU216DAVISVP2,2013-09-27 23:16:00,
2013-09-27 19:21:00,66.7,56.4,30.13,ENE,75,0.0,3.0,69,0.00,,,0.00,WUHU216DAVISVP2,2013-09-27 23:21:00,
2013-09-27 19:26:00,66.5,56.6,30.14,NE,56,1.0,3.0,70,0.00,,,0.00,WUHU216DAVISVP2,2013-09-27 23:26:00,
2013-09-27 19:30:00,66.4,56.3,30.14,ENE,68,0.0,3.0,70,0.00,,,0.00,WUHU216DAVISVP2,2013-09-27 23:30:00,
2013-09-27 19:31:00,66.2,56.3,30.14,ENE,74,0.0,3.0,70,0.00,,,0.00,WUHU216DAVISVP2,2013-09-27 23:31:00,
2013-09-27 19:36:00,66.0,56.5,30.14,East,87,0.0,3.0,71,0.00,,,0.00,WUHU216DAVISVP2,2013-09-27 23:36:00,
2013-09-27 19:41:00,65.8,56.7,30.14,ENE,65,1.0,3.0,72,0.00,,,0.00,WUHU216DAVISVP2,2013-09-27 23:41:00,
2013-09-27 19:46:00,65.5,56.4,30.14,ENE,71,0.0,3.0,72,0.00,,,0.00,WUHU216DAVISVP2,2013-09-27 23:46:00,
2013-09-27 19:51:00,65.3,56.6,30.14,ENE,68,0.0,3.0,73,0.00,,,0.00,WUHU216DAVISVP2,2013-09-27 23:51:00,
2013-09-27 19:56:00,65.1,56.7,30.14,ENE,68,1.0,3.0,74,0.00,,,0.00,WUHU216DAVISVP2,2013-09-27 23:56:00,
2013-09-27 20:00:00,65.0,56.5,30.14,ENE,68,0.0,3.0,74,0.00,,,0.00,WUHU216DAVISVP2,2013-09-28 00:00:00,
2013-09-27 20:01:00,64.8,56.8,30.14,ENE,71,0.0,3.0,75,0.00,,,0.00,WUHU216DAVISVP2,2013-09-28 00:01:00,
2013-09-27 20:06:00,64.4,56.8,30.14,ENE,69,0.0,3.0,76,0.00,,,0.00,WUHU216DAVISVP2,2013-09-28 00:06:00,
2013-09-27 20:11:00,64.1,56.8,30.14,ENE,64,0.0,3.0,77,0.00,,,0.00,WUHU216DAVISVP2,2013-09-28 00:11:00,
2013-09-27 20:16:00,63.6,56.7,30.14,NE,43,0.0,2.0,78,0.00,,,0.00,WUHU216DAVISVP2,2013-09-28 00:16:00,
2013-09-27 20:21:00,63.2,56.7,30.14,NE,55,0.0,2.0,79,0.00,,,0.00,WUHU216DAVISVP2,2013-09-28 00:21:00,
2013-09-27 20:26:00,62.8,56.6,30.14,NE,51,0.0,2.0,80,0.00,,,0.00,WUHU216DAVISVP2,2013-09-28 00:26:00,
2013-09-27 20:30:00,62.6,56.3,30.14,NE,45,0.0,2.0,80,0.00,,,0.00,WUHU216DAVISVP2,2013-09-28 00:30:00,
2013-09-27 20:31:00,62.5,56.3,30.15,NE,51,0.0,2.0,80,0.00,,,0.00,WUHU216DAVISVP2,2013-09-28 00:31:00,
2013-09-27 20:36:00,62.2,56.3,30.15,NE,47,0.0,2.0,81,0.00,,,0.00,WUHU216DAVISVP2,2013-09-28 00:36:00,
2013-09-27 20:41:00,62.0,56.5,30.15,ENE,69,2.0,4.0,82,0.00,,,0.00,WUHU216DAVISVP2,2013-09-28 00:41:00,
2013-09-27 20:46:00,62.2,56.7,30.15,ENE,65,1.0,4.0,82,0.00,,,0.00,WUHU216DAVISVP2,2013-09-28 00:46:00,
2013-09-27 20:51:00,62.0,56.5,30.15,ENE,63,0.0,4.0,82,0.00,,,0.00,WUHU216DAVISVP2,2013-09-28 00:51:00,
2013-09-27 20:56:00,61.8,56.3,30.16,ENE,61,0.0,4.0,82,0.00,,,0.00,WUHU216DAVISVP2,2013-09-28 00:56:00,
2013-09-27 21:00:00,61.7,56.5,30.16,ENE,68,1.0,4.0,83,0.00,,,0.00,WUHU216DAVISVP2,2013-09-28 01:00:00,
2013-09-27 21:01:00,61.6,56.4,30.16,NE,53,0.0,4.0,83,0.00,,,0.00,WUHU216DAVISVP2,2013-09-28 01:01:00,
2013-09-27 21:06:00,61.3,56.1,30.16,ENE,63,0.0,3.0,83,0.00,,,0.00,WUHU216DAVISVP2,2013-09-28 01:06:00,
2013-09-27 21:11:00,61.2,56.3,30.16,ENE,71,0.0,2.0,84,0.00,,,0.00,WUHU216DAVISVP2,2013-09-28 01:11:00,
2013-09-27 21:16:00,61.4,56.2,30.16,ENE,64,0.0,1.0,83,0.00,,,0.00,WUHU216DAVISVP2,2013-09-28 01:16:00,
2013-09-27 21:21:00,61.8,56.0,30.17,ENE,65,0.0,1.0,81,0.00,,,0.00,WUHU216DAVISVP2,2013-09-28 01:21:00,
2013-09-27 21:26:00,61.9,56.1,30.17,NE,37,0.0,1.0,81,0.00,,,0.00,WUHU216DAVISVP2,2013-09-28 01:26:00,
2013-09-27 21:30:00,61.5,56.0,30.17,ENE,68,0.0,1.0,82,0.00,,,0.00,WUHU216DAVISVP2,2013-09-28 01:30:00,
2013-09-27 21:31:00,60.9,56.1,30.17,NE,39,0.0,1.0,84,0.00,,,0.00,WUHU216DAVISVP2,2013-09-28 01:31:00,
2013-09-27 21:36:00,60.3,55.8,30.17,ENE,64,0.0,2.0,85,0.00,,,0.00,WUHU216DAVISVP2,2013-09-28 01:36:00,
2013-09-27 21:41:00,60.0,55.8,30.17,NE,44,0.0,3.0,86,0.00,,,0.00,WUHU216DAVISVP2,2013-09-28 01:41:00,
2013-09-27 21:46:00,59.9,56.0,30.18,NE,45,0.0,3.0,87,0.00,,,0.00,WUHU216DAVISVP2,2013-09-28 01:46:00,
2013-09-27 21:51:00,59.7,55.8,30.18,NE,47,1.0,3.0,87,0.00,,,0.00,WUHU216DAVISVP2,2013-09-28 01:51:00,
2013-09-27 21:56:00,59.5,55.6,30.18,NE,49,2.0,3.0,87,0.00,,,0.00,WUHU216DAVISVP2,2013-09-28 01:56:00,
2013-09-27 22:00:00,59.6,55.7,30.18,NE,45,1.0,3.0,87,0.00,,,0.00,WUHU216DAVISVP2,2013-09-28 02:00:00,
2013-09-27 22:01:00,59.6,55.7,30.18,NE,51,0.0,3.0,87,0.00,,,0.00,WUHU216DAVISVP2,2013-09-28 02:01:00,
2013-09-27 22:06:00,59.6,55.7,30.18,ENE,58,0.0,3.0,87,0.00,,,0.00,WUHU216DAVISVP2,2013-09-28 02:06:00,
2013-09-27 22:11:00,59.6,55.7,30.18,NE,36,2.0,3.0,87,0.00,,,0.00,WUHU216DAVISVP2,2013-09-28 02:11:00,
2013-09-27 22:16:00,59.5,55.9,30.19,NE,41,0.0,3.0,88,0.00,,,0.00,WUHU216DAVISVP2,2013-09-28 02:16:00,
2013-09-27 22:21:00,59.5,55.9,30.19,ENE,59,2.0,3.0,88,0.00,,,0.00,WUHU216DAVISVP2,2013-09-28 02:21:00,
2013-09-27 22:26:00,59.7,55.8,30.19,NE,53,2.0,3.0,87,0.00,,,0.00,WUHU216DAVISVP2,2013-09-28 02:26:00,
2013-09-27 22:30:00,59.7,55.8,30.19,NE,45,1.0,3.0,87,0.00,,,0.00,WUHU216DAVISVP2,2013-09-28 02:30:00,
2013-09-27 22:31:00,59.7,55.8,30.19,ENE,59,0.0,3.0,87,0.00,,,0.00,WUHU216DAVISVP2,2013-09-28 02:31:00,
2013-09-27 22:36:00,59.8,55.9,30.19,NE,55,0.0,3.0,87,0.00,,,0.00,WUHU216DAVISVP2,2013-09-28 02:36:00,
2013-09-27 22:41:00,59.9,56.0,30.19,NE,39,0.0,3.0,87,0.00,,,0.00,WUHU216DAVISVP2,2013-09-28 02:41:00,
2013-09-27 22:46:00,59.6,55.7,30.19,NE,45,1.0,3.0,87,0.00,,,0.00,WUHU216DAVISVP2,2013-09-28 02:46:00,
2013-09-27 22:51:00,59.2,55.6,30.20,NE,53,1.0,3.0,88,0.00,,,0.00,WUHU216DAVISVP2,2013-09-28 02:51:00,
2013-09-27 22:56:00,59.1,55.8,30.20,NNE,30,2.0,3.0,89,0.00,,,0.00,WUHU216DAVISVP2,2013-09-28 02:56:00,
2013-09-27 23:00:00,59.1,55.5,30.20,NE,45,1.0,3.0,88,0.00,,,0.00,WUHU216DAVISVP2,2013-09-28 03:00:00,
2013-09-27 23:01:00,59.0,55.7,30.20,NE,49,2.0,3.0,89,0.00,,,0.00,WUHU216DAVISVP2,2013-09-28 03:01:00,
2013-09-27 23:06:00,59.0,55.7,30.20,NE,47,1.0,3.0,89,0.00,,,0.00,WUHU216DAVISVP2,2013-09-28 03:06:00,
2013-09-27 23:11:00,58.9,55.6,30.20,NE,43,1.0,3.0,89,0.00,,,0.00,WUHU216DAVISVP2,2013-09-28 03:11:00,
2013-09-27 23:16:00,58.7,55.4,30.20,NE,47,1.0,3.0,89,0.00,,,0.00,WUHU216DAVISVP2,2013-09-28 03:16:00,
2013-09-27 23:21:00,58.7,55.4,30.20,NE,46,1.0,3.0,89,0.00,,,0.00,WUHU216DAVISVP2,2013-09-28 03:21:00,
2013-09-27 23:26:00,58.6,55.3,30.20,ENE,63,2.0,3.0,89,0.00,,,0.00,WUHU216DAVISVP2,2013-09-28 03:26:00,
2013-09-27 23:30:00,58.6,55.4,30.20,NE,45,1.0,3.0,89,0.00,,,0.00,WUHU216DAVISVP2,2013-09-28 03:30:00,
2013-09-27 23:31:00,58.6,55.3,30.20,NE,53,2.0,3.0,89,0.00,,,0.00,WUHU216DAVISVP2,2013-09-28 03:31:00,
2013-09-27 23:36:00,58.5,55.3,30.20,NE,47,2.0,3.0,89,0.00,,,0.00,WUHU216DAVISVP2,2013-09-28 03:36:00,
2013-09-27 23:41:00,58.4,55.2,30.21,NE,44,1.0,3.0,89,0.00,,,0.00,WUHU216DAVISVP2,2013-09-28 03:41:00,
2013-09-27 23:46:00,58.2,54.9,30.20,NE,53,1.0,2.0,89,0.00,,,0.00,WUHU216DAVISVP2,2013-09-28 03:46:00,
2013-09-27 23:51:00,58.3,55.0,30.21,ENE,63,2.0,3.0,89,0.00,,,0.00,WUHU216DAVISVP2,2013-09-28 03:51:00,
2013-09-27 23:56:00,58.6,55.3,30.21,ENE,57,0.0,3.0,89,0.00,,,0.00,WUHU216DAVISVP2,2013-09-28 03:56:00,